Location: Mannheim
(49.4880°N, 8.4650°E)
Time: 06:22:13
(UTC+02:00)

ACS3 Solar Sail - Pass Details

Date: 21 September 2024
Orbit: 963 x 1036 km, 97.4° (Epoch: 04 October)

Event Time Altitude Azimuth Distance (km) Brightness Sun altitude
Exits shadow 23:12:54 - 231° (SW) 2,927 4.3 -33.4°
Reaches altitude 10° 23:13:17 10° 234° (SW) 2,836 4.2 -33.4°
Maximum altitude 23:17:33 18° 276° (W) 2,285 4.1 -33.9°
Drops below altitude 10° 23:21:50 10° 318° (NW) 2,844 5.0 -34.3°
Sets 23:25:17 0° 337° (NNW) 3,795 5.9 -34.6°
